GW0571 Weather Reports


time (UTC)temp
C
wind
direction
speed
KPH
gust
KPH
rain 1hr
cm
rain 24hr
cm
rain mn
cm
humidity
%
barometer
mb
20260509002456 9 87 1.6 1.6 0.00 0.00 0.00 58 1010.8
20260509001953 10 125 1.6 3.2 0.00 0.00 0.00 62 1010.8
20260509001450 10 99 0.0 0.0 0.00 0.00 0.00 58 1010.8
20260509000946 10 84 0.0 3.2 0.00 0.00 0.00 55 1010.7
20260509000447 10 113 1.6 1.6 0.00 0.00 0.00 55 1010.8
20260508235940 10 110 0.0 1.6 0.00 0.00 0.00 55 1010.5
20260508235439 10 22 0.0 1.6 0.00 0.00 0.00 53 1010.6
20260508234935 11 116 0.0 3.2 0.00 0.00 0.00 51 1010.8
20260508234432 11 115 1.6 3.2 0.00 0.00 0.00 53 1010.6
20260508233929 11 89 4.8 4.8 0.00 0.00 0.00 52 1010.5
20260508233429 11 50 0.0 4.8 0.00 0.00 0.00 48 1010.4
20260508232925 11 103 0.0 1.6 0.00 0.00 0.00 47 1010.5
20260508232422 11 58 0.0 3.2 0.00 0.00 0.00 47 1010.4
20260508231919 11 237 0.0 3.2 0.00 0.00 0.00 47 1010.3
20260508231416 11 22 0.0 4.8 0.00 0.00 0.00 45 1010.3
20260508230913 12 2 3.2 3.2 0.00 0.00 0.00 44 1010.4
20260508230410 12 301 1.6 3.2 0.00 0.00 0.00 47 1010.4
20260508225907 12 0 0.0 6.4 0.00 0.00 0.00 44 1010.1
20260508225403 13 135 1.6 4.8 0.00 0.00 0.00 41 1010.3
20260508224901 14 113 0.0 3.2 0.00 0.00 0.00 43 1010.4
20260508224359 13 39 0.0 4.8 0.00 0.00 0.00 44 1010.3
20260508223856 12 50 0.0 3.2 0.00 0.00 0.00 43 1010.3
20260508223354 12 168 1.6 6.4 0.00 0.00 0.00 45 1010.6
20260508222851 13 13 3.2 4.8 0.00 0.00 0.00 43 1010.3
20260508222348 12 260 0.0 8.0 0.00 0.00 0.00 48 1010.2
20260508221844 12 330 3.2 4.8 0.00 0.00 0.00 45 1010.3
20260508221340 12 340 3.2 4.8 0.00 0.00 0.00 45 1010.5
20260508220836 13 295 3.2 4.8 0.00 0.00 0.00 44 1010.3
20260508220333 13 321 3.2 4.8 0.00 0.00 0.00 44 1010.2
20260508215830 13 345 3.2 8.0 0.00 0.00 0.00 44 1010.1
20260508215326 13 344 3.2 8.0 0.00 0.00 0.00 43 1010.5
20260508214823 13 337 4.8 6.4 0.00 0.00 0.00 44 1010.4
20260508214320 13 236 0.0 8.0 0.00 0.00 0.00 42 1010.6
20260508213817 13 322 1.6 11.3 0.00 0.00 0.00 42 1010.4
20260508213314 13 258 4.8 6.4 0.00 0.00 0.00 44 1010.4
20260508212810 13 194 4.8 8.0 0.00 0.00 0.00 42 1010.5
20260508212306 13 136 12.9 17.7 0.00 0.00 0.00 43 1010.5
20260508211802 13 339 1.6 6.4 0.00 0.00 0.00 41 1010.5
20260508211258 12 65 3.2 4.8 0.00 0.00 0.00 44 1010.4
20260508210756 12 31 3.2 9.7 0.00 0.00 0.00 47 1010.3
20260508210252 12 1 4.8 11.3 0.00 0.00 0.00 46 1010.6
20260508205749 11 48 4.8 8.0 0.00 0.00 0.00 48 1010.7
20260508205245 11 10 4.8 8.0 0.00 0.00 0.00 47 1010.8
20260508204742 11 334 3.2 9.7 0.00 0.00 0.00 46 1010.9
20260508204238 12 175 0.0 11.3 0.00 0.00 0.00 45 1010.7
20260508203734 12 347 11.3 11.3 0.00 0.00 0.00 44 1010.7
20260508203231 11 31 3.2 4.8 0.00 0.00 0.00 45 1010.9
20260508202727 11 203 4.8 20.9 0.00 0.00 0.00 46 1010.9
20260508202224 11 346 1.6 9.7 0.00 0.00 0.00 46 1011.0
20260508201721 11 329 3.2 9.7 0.00 0.00 0.00 43 1010.9
20260508201218 11 297 3.2 11.3 0.00 0.00 0.00 46 1011.0
20260508200715 11 206 4.8 14.5 0.00 0.00 0.00 46 1011.0
20260508200211 12 224 16.1 16.1 0.00 0.00 0.00 45 1011.1
20260508195708 12 273 0.0 8.0 0.00 0.00 0.00 44 1011.1
20260508195204 11 218 6.4 17.7 0.00 0.00 0.00 46 1011.2
20260508194700 11 285 4.8 11.3 0.00 0.00 0.00 48 1011.2
20260508194157 11 246 9.7 16.1 0.00 0.00 0.00 48 1011.2
20260508193654 11 1 8.0 14.5 0.00 0.00 0.00 48 1011.2
20260508193151 12 254 4.8 8.0 0.00 0.00 0.00 53 1011.5
20260508192648 11 290 3.2 11.3 0.00 0.00 0.00 57 1011.3
20260508192145 10 184 4.8 8.0 0.00 0.00 0.00 54 1011.6
20260508191642 11 357 4.8 8.0 0.00 0.00 0.00 53 1011.5
20260508191138 10 304 0.0 8.0 0.00 0.00 0.00 56 1011.7
20260508190636 9 352 3.2 11.3 0.00 0.00 0.00 59 1011.6
20260508190132 10 304 4.8 11.3 0.00 0.00 0.00 55 1011.7
20260508185629 11 357 9.7 9.7 0.00 0.00 0.00 57 1011.5
20260508185126 10 326 4.8 6.4 0.00 0.00 0.00 60 1011.7
20260508184624 10 236 12.9 16.1 0.00 0.00 0.00 52 1012.0
20260508184121 11 33 0.0 6.4 0.00 0.00 0.00 52 1012.1
20260508183617 11 286 6.4 20.9 0.00 0.00 0.00 50 1012.0
20260508183113 10 1 4.8 22.5 0.00 0.00 0.00 58 1012.2
20260508182609 10 315 4.8 24.1 0.00 0.00 0.00 60 1012.1
20260508182106 10 324 6.4 14.5 0.00 0.00 0.00 60 1012.2
20260508181601 10 248 11.3 17.7 0.00 0.00 0.00 56 1012.3
20260508181059 10 351 8.0 14.5 0.00 0.00 0.00 62 1012.1
20260508180555 10 216 8.0 20.9 0.00 0.00 0.00 60 1012.4
20260508180052 8 247 4.8 16.1 0.00 0.00 0.00 63 1012.3
20260508175548 10 310 4.8 17.7 0.00 0.00 0.00 61 1012.1
20260508175046 8 318 3.2 16.1 0.00 0.00 0.00 63 1012.2
20260508174543 8 12 0.0 6.4 0.00 0.00 0.00 63 1012.4
20260508174040 9 312 1.6 8.0 0.00 0.00 0.00 66 1012.3
20260508173537 7 324 1.6 11.3 0.00 0.00 0.00 68 1012.4
20260508173033 7 234 11.3 19.3 0.00 0.00 0.00 69 1012.6
20260508172531 7 248 8.0 9.7 0.00 0.00 0.00 71 1012.6
20260508172027 7 336 0.0 9.7 0.00 0.00 0.00 71 1012.4
20260508171524 7 249 11.3 16.1 0.00 0.00 0.00 71 1012.4
20260508171020 7 255 11.3 20.9 0.00 0.00 0.00 69 1012.4
20260508170517 8 212 3.2 11.3 0.00 0.00 0.00 72 1012.5
20260508170015 7 231 9.7 19.3 0.00 0.00 0.00 70 1012.6
20260508165512 6 241 9.7 17.7 0.00 0.00 0.00 73 1012.7
20260508165009 7 227 4.8 9.7 0.00 0.00 0.00 72 1012.7
20260508164505 6 330 0.0 8.0 0.00 0.00 0.00 77 1012.6
20260508164002 6 351 4.8 6.4 0.00 0.00 0.00 80 1012.7
20260508163459 6 350 4.8 4.8 0.00 0.00 0.00 80 1012.7
20260508162955 6 226 11.3 11.3 0.00 0.00 0.00 80 1012.7
20260508162453 5 357 6.4 9.7 0.00 0.00 0.00 82 1012.6
20260508161950 5 288 3.2 14.5 0.00 0.00 0.00 82 1012.7
20260508161447 5 353 3.2 11.3 0.00 0.00 0.00 84 1012.7
20260508160944 5 20 8.0 14.5 0.00 0.00 0.00 85 1012.8
20260508160443 4 12 4.8 9.7 0.00 0.00 0.00 87 1012.8
20260508155938 4 355 3.2 8.0 0.00 0.00 0.00 87 1013.0
20260508155436 4 346 1.6 6.4 0.00 0.00 0.00 88 1013.0
20260508154932 4 337 4.8 9.7 0.00 0.00 0.00 88 1012.9
20260508154430 4 317 3.2 4.8 0.00 0.00 0.00 86 1012.8
20260508153927 4 1 3.2 9.7 0.00 0.00 0.00 88 1012.6
20260508153424 4 25 6.4 9.7 0.00 0.00 0.00 88 1012.6
20260508152920 4 0 6.4 9.7 0.00 0.00 0.00 88 1012.6
20260508152416 5 359 3.2 8.0 0.00 0.00 0.00 87 1012.4
20260508151913 5 46 3.2 8.0 0.00 0.00 0.00 88 1012.3
20260508151410 5 12 4.8 9.7 0.00 0.00 0.00 86 1012.4
20260508150906 5 329 0.0 4.8 0.00 0.00 0.00 84 1012.4
20260508150403 5 63 1.6 4.8 0.00 0.00 0.00 85 1012.4
20260508145859 5 9 1.6 8.0 0.00 0.00 0.00 86 1012.1
20260508145355 5 95 4.8 6.4 0.00 0.00 0.00 86 1012.1
20260508144852 5 25 3.2 4.8 0.00 0.00 0.00 86 1012.3
20260508144350 5 224 0.0 4.8 0.00 0.00 0.00 85 1012.7
20260508143847 5 35 0.0 1.6 0.00 0.00 0.00 86 1012.6
20260508143344 5 102 0.0 1.6 0.00 0.00 0.00 86 1012.4
20260508142841 5 141 0.0 3.2 0.00 0.00 0.00 84 1012.4
20260508142338 4 32 0.0 1.6 0.00 0.00 0.00 85 1012.5
20260508141834 4 11 0.0 6.4 0.00 0.00 0.00 85 1012.3
20260508141331 4 251 1.6 12.9 0.00 0.00 0.00 85 1012.5
20260508140829 4 297 3.2 6.4 0.05 0.00 0.00 87 1012.7
20260508140326 4 298 1.6 11.3 0.05 0.00 0.00 87 1012.7
20260508135821 4 228 6.4 12.9 0.00 0.00 0.00 87 1012.6
20260508135318 4 76 0.0 3.2 0.00 0.00 0.00 88 1012.4
20260508134814 4 205 0.0 4.8 0.00 0.00 0.00 87 1012.4
20260508134311 4 236 3.2 4.8 0.00 0.00 0.00 85 1012.1
20260508133808 5 87 0.0 3.2 0.00 0.00 0.00 86 1012.1
20260508133306 5 249 0.0 3.2 0.00 0.00 0.00 86 1012.1
20260508132803 5 214 3.2 3.2 0.00 0.00 0.00 85 1012.1
20260508132300 5 62 1.6 3.2 0.00 0.00 0.00 85 1011.8
20260508131756 5 103 0.0 1.6 0.00 0.00 0.00 86 1011.8
20260508131252 5 89 0.0 3.2 0.00 0.00 0.00 85 1012.0
20260508130749 5 166 0.0 4.8 0.00 0.00 0.00 84 1012.0
20260508130246 5 174 0.0 9.7 0.00 0.00 0.00 84 1011.6
20260508125742 5 189 3.2 9.7 0.00 0.00 0.00 84 1011.7
20260508125238 5 162 0.0 6.4 0.00 0.00 0.00 84 1011.5
20260508124737 5 131 3.2 4.8 0.00 0.00 0.00 84 1011.5
20260508124233 5 132 1.6 8.0 0.00 0.00 0.00 85 1011.5
20260508123732 5 144 0.0 9.7 0.00 0.00 0.00 85 1011.3
20260508123229 5 164 3.2 9.7 0.00 0.00 0.00 84 1011.3
20260508122725 5 128 6.4 6.4 0.00 0.00 0.00 84 1011.4
20260508122222 4 176 3.2 6.4 0.00 0.00 0.00 85 1011.6
20260508121720 4 225 3.2 4.8 0.00 0.00 0.00 85 1011.7
20260508121218 4 138 0.0 4.8 0.00 0.00 0.00 84 1011.5
20260508120715 4 117 4.8 4.8 0.00 0.00 0.00 84 1011.7
20260508120213 5 198 1.6 3.2 0.00 0.00 0.00 85 1011.5
20260508115710 5 112 4.8 4.8 0.00 0.00 0.00 86 1011.3
20260508115207 5 110 1.6 3.2 0.00 0.00 0.00 92 1011.2
20260508114704 3 107 3.2 4.8 0.00 0.00 0.00 95 1011.5
20260508114201 3 119 4.8 4.8 0.00 0.00 0.00 96 1011.6
20260508113657 3 128 4.8 4.8 0.00 0.00 0.00 96 1011.8
20260508113156 3 120 3.2 4.8 0.00 0.00 0.00 96 1012.0
20260508112652 3 126 3.2 3.2 0.00 0.00 0.00 96 1011.6
20260508112149 2 110 1.6 3.2 0.00 0.00 0.00 96 1012.0
20260508111645 2 122 1.6 3.2 0.00 0.00 0.00 96 1012.0
20260508111143 2 142 0.0 3.2 0.00 0.00 0.00 96 1012.0
20260508110640 2 95 1.6 4.8 0.00 0.00 0.00 96 1011.7
20260508110137 2 76 1.6 8.0 0.00 0.00 0.00 96 1011.7
20260508105631 1 92 3.2 3.2 0.00 0.00 0.00 96 1011.8
20260508105129 1 104 1.6 3.2 0.00 0.00 0.00 96 1011.7
20260508104627 1 114 0.0 3.2 0.00 0.00 0.00 96 1011.6
20260508104123 1 108 3.2 4.8 0.00 0.00 0.00 96 1011.6
20260508103620 1 89 3.2 3.2 0.00 0.00 0.00 96 1012.0
20260508103117 1 89 3.2 4.8 0.00 0.00 0.00 96 1011.8
20260508102615 0 121 0.0 3.2 0.00 0.00 0.00 96 1011.6
20260508102113 0 157 1.6 3.2 0.00 0.00 0.00 95 1011.7
20260508101609 0 92 3.2 4.8 0.00 0.00 0.00 95 1011.4
20260508101107 0 95 1.6 4.8 0.00 0.00 0.00 95 1011.8
20260508100604 0 89 1.6 3.2 0.00 0.00 0.00 95 1012.0
20260508095558 0 105 1.6 4.8 0.00 0.00 0.00 95 1011.7
20260508095055 0 102 1.6 4.8 0.00 0.00 0.00 95 1011.6
20260508094552 0 79 3.2 4.8 0.00 0.00 0.00 95 1011.8
20260508094049 0 114 0.0 3.2 0.00 0.00 0.00 94 1011.8
20260508093546 0 127 3.2 4.8 0.00 0.00 0.00 94 1011.8
20260508093044 0 124 0.0 3.2 0.00 0.00 0.00 94 1011.7
20260508092541 0 111 1.6 4.8 0.00 0.00 0.00 94 1011.2
20260508092040 0 43 3.2 4.8 0.00 0.00 0.00 94 1011.2
20260508091536 0 59 3.2 4.8 0.00 0.00 0.00 93 1011.4
20260508091033 1 110 3.2 4.8 0.00 0.00 0.00 93 1011.6
20260508090532 1 83 3.2 4.8 0.00 0.00 0.00 93 1011.5
20260508090028 1 53 0.0 4.8 0.00 0.00 0.00 93 1011.4
20260508085524 1 57 1.6 3.2 0.00 0.00 0.00 92 1011.3
20260508085021 1 29 3.2 4.8 0.00 0.00 0.00 91 1011.2
20260508084518 2 76 0.0 1.6 0.00 0.00 0.00 91 1011.1
20260508084016 2 119 3.2 4.8 0.00 0.00 0.00 91 1011.0
20260508083513 2 105 1.6 3.2 0.00 0.00 0.00 91 1011.2
20260508083009 2 108 1.6 1.6 0.00 0.00 0.00 90 1011.4
20260508082505 2 97 0.0 3.2 0.00 0.00 0.00 90 1011.6
20260508082003 2 212 0.0 1.6 0.00 0.00 0.00 89 1011.3
20260508081500 3 166 1.6 3.2 0.00 0.00 0.00 88 1011.1
20260508080955 3 166 1.6 4.8 0.00 0.00 0.00 89 1011.0
20260508080454 2 136 3.2 3.2 0.00 0.00 0.00 90 1011.0
20260508075951 3 128 3.2 3.2 0.00 0.00 0.00 88 1011.3
20260508075448 3 55 0.0 1.6 0.00 0.00 0.00 87 1010.9
20260508074945 3 77 1.6 4.8 0.00 0.00 0.00 86 1010.7
20260508074443 3 72 1.6 6.4 0.00 0.00 0.00 86 1011.0
20260508073939 3 243 3.2 3.2 0.00 0.00 0.00 88 1010.9
20260508073437 4 288 0.0 4.8 0.00 0.00 0.00 87 1010.9
20260508072934 4 141 0.0 4.8 0.00 0.00 0.00 87 1011.1
20260508072430 4 174 0.0 4.8 0.00 0.00 0.00 87 1011.1
20260508071927 4 196 4.8 6.4 0.00 0.00 0.00 87 1010.8
20260508071425 4 223 3.2 8.0 0.00 0.00 0.00 87 1011.2
20260508070923 4 101 4.8 6.4 0.00 0.00 0.00 87 1011.0
20260508070420 4 306 0.0 6.4 0.00 0.00 0.00 88 1011.1
20260508065918 3 205 0.0 3.2 0.00 0.00 0.00 88 1011.0
20260508065416 3 99 0.0 3.2 0.00 0.00 0.00 87 1011.1
20260508064914 3 198 0.0 4.8 0.00 0.00 0.00 87 1011.0
20260508064411 3 166 0.0 4.8 0.00 0.00 0.00 87 1010.9
20260508063909 3 174 0.0 3.2 0.00 0.00 0.00 86 1011.0
20260508063406 3 122 3.2 3.2 0.00 0.00 0.00 85 1010.8
20260508062903 3 123 3.2 4.8 0.00 0.00 0.00 85 1010.7
20260508062401 3 125 3.2 4.8 0.00 0.00 0.00 85 1010.8
20260508061858 3 120 3.2 4.8 0.00 0.00 0.00 86 1010.7
20260508061355 3 123 3.2 4.8 0.00 0.00 0.00 86 1010.7
20260508060851 3 113 3.2 4.8 0.00 0.00 0.00 87 1010.7
20260508060349 3 88 3.2 4.8 0.00 0.00 0.00 88 1010.8
20260508055844 3 234 3.2 3.2 0.00 0.00 0.00 88 1010.9
20260508055342 3 41 1.6 3.2 0.00 0.00 0.00 87 1010.8
20260508054838 3 100 3.2 3.2 0.00 0.00 0.00 88 1010.7
20260508054336 3 104 3.2 4.8 0.00 0.00 0.00 88 1010.7
20260508053832 3 95 3.2 4.8 0.00 0.00 0.00 88 1010.8
20260508053330 3 97 3.2 3.2 0.00 0.00 0.00 88 1010.9
20260508052827 3 55 0.0 3.2 0.00 0.00 0.00 87 1011.0
20260508052324 3 93 3.2 3.2 0.00 0.00 0.00 85 1011.0
20260508051820 3 63 0.0 3.2 0.00 0.00 0.00 82 1010.9
20260508051316 3 122 3.2 3.2 0.00 0.00 0.00 82 1011.1
20260508050812 3 118 0.0 1.6 0.00 0.00 0.00 81 1011.1
20260508050310 3 112 1.6 3.2 0.00 0.00 0.00 80 1011.0
20260508045805 4 113 3.2 3.2 0.00 0.00 0.00 80 1011.1
20260508045306 4 110 3.2 4.8 0.00 0.00 0.00 80 1011.0
20260508044801 5 110 3.2 4.8 0.00 0.00 0.00 79 1010.9
20260508044257 5 104 4.8 4.8 0.00 0.00 0.00 81 1011.2
20260508043753 5 76 0.0 3.2 0.00 0.00 0.00 81 1011.2
20260508043251 5 96 3.2 3.2 0.00 0.00 0.00 80 1011.5
20260508042747 5 105 1.6 3.2 0.00 0.00 0.00 79 1011.2
20260508042245 5 135 0.0 4.8 0.00 0.00 0.00 77 1010.9
20260508041741 5 142 6.4 8.0 0.00 0.00 0.00 75 1011.2
20260508041238 5 275 4.8 8.0 0.00 0.00 0.00 76 1011.2
20260508040734 5 143 6.4 8.0 0.00 0.00 0.00 76 1011.2
20260508040232 5 228 0.0 4.8 0.00 0.00 0.00 77 1011.2
20260508035729 5 137 3.2 6.4 0.00 0.00 0.00 77 1011.0
20260508035226 5 122 4.8 6.4 0.00 0.00 0.00 78 1011.1
20260508034723 5 194 0.0 6.4 0.00 0.00 0.00 80 1011.0
20260508034220 4 126 6.4 6.4 0.00 0.00 0.00 77 1010.8
20260508033717 4 109 3.2 3.2 0.00 0.00 0.00 79 1010.9
20260508033216 4 120 3.2 3.2 0.00 0.00 0.00 79 1010.8
20260508032713 4 69 1.6 3.2 0.00 0.00 0.00 78 1010.7
20260508032209 5 66 0.0 1.6 0.00 0.00 0.00 76 1010.8
20260508031706 5 103 0.0 3.2 0.00 0.00 0.00 72 1010.6
20260508031203 5 117 4.8 4.8 0.00 0.00 0.00 72 1010.6
20260508030659 4 121 3.2 4.8 0.00 0.00 0.00 74 1010.8
20260508030157 3 118 3.2 3.2 0.00 0.00 0.00 75 1010.6
20260508025653 3 116 3.2 3.2 0.00 0.00 0.00 75 1010.6
20260508025150 3 103 0.0 1.6 0.00 0.00 0.00 74 1010.5
20260508024646 3 120 3.2 3.2 0.00 0.00 0.00 74 1010.3
20260508024143 3 100 3.2 3.2 0.00 0.00 0.00 79 1010.4
20260508023639 2 106 1.6 3.2 0.00 0.00 0.00 83 1010.2
20260508023137 3 92 1.6 3.2 0.00 0.00 0.00 83 1010.3
20260508022632 3 108 1.6 3.2 0.00 0.00 0.00 82 1010.2
20260508022130 3 29 3.2 4.8 0.00 0.00 0.00 82 1010.1
20260508021626 3 73 1.6 3.2 0.00 0.00 0.00 81 1010.2
20260508021121 4 34 0.0 3.2 0.00 0.00 0.00 80 1010.2
20260508020620 4 59 1.6 3.2 0.00 0.00 0.00 77 1010.2
20260508020117 3 105 1.6 3.2 0.00 0.00 0.00 76 1010.3
20260508015614 3 88 1.6 3.2 0.00 0.00 0.00 77 1010.5
20260508015111 4 102 0.0 1.6 0.00 0.00 0.00 77 1010.3
20260508014607 4 61 1.6 3.2 0.00 0.00 0.00 74 1010.1
20260508014104 4 92 1.6 3.2 0.00 0.00 0.00 73 1010.0
20260508013600 5 103 0.0 3.2 0.00 0.00 0.00 72 1010.0
20260508013057 5 80 1.6 3.2 0.00 0.00 0.00 70 1010.0
20260508012554 6 57 1.6 4.8 0.00 0.00 0.00 68 1009.8
20260508012052 6 27 1.6 8.0 0.00 0.00 0.00 65 1010.0
20260508011550 6 4 4.8 8.0 0.00 0.00 0.00 67 1009.9
20260508011047 6 8 3.2 6.4 0.00 0.00 0.00 69 1009.9
20260508010543 5 352 3.2 6.4 0.00 0.00 0.00 73 1009.9
20260508010041 5 32 1.6 3.2 0.00 0.00 0.00 75 1009.9
20260508005537 6 42 1.6 3.2 0.00 0.00 0.00 71 1009.7
20260508005034 6 42 3.2 4.8 0.00 0.00 0.00 68 1009.6
20260508004530 6 68 1.6 3.2 0.00 0.00 0.00 68 1009.7
20260508004027 6 67 1.6 3.2 0.00 0.00 0.00 66 1009.7
20260508003524 6 83 1.6 3.2 0.00 0.00 0.00 65 1009.5
20260508003021 7 82 0.0 3.2 0.00 0.00 0.00 63 1009.5